Location: Goll?ig?dem
(16.6773°N, 80.7332°E)
Time: 02:01:06
(UTC+00:00)

OAO 3 Copernicus - Pass Details

Date: 21 April 2021
Orbit: 695 x 704 km, 35.0° (Epoch: 08 May)

Event Time Altitude Azimuth Distance (km) Brightness Sun altitude
Rises 14:29:29 0° 303° (WNW) 3,070 9.0 -22.7°
Reaches altitude 10° 14:31:53 10° 304° (NW) 2,154 7.9 -23.2°
Maximum altitude 14:36:57 86° 34° (NNE) 703 4.2 -24.4°
Enters shadow 14:37:17 78° 104° (ESE) 716 4.1 -24.4°
